Left ArrowRight Arrow

38.83388, -104.82136

Hourly Observations for December 12, 2021

Temp ( °F °C ) Dew Point ( °F °C ) Humidity (%) Winds ( mph kmh ) Pressure ( in mb ) Visibility ( mi km ) Precip ( " mm )
12:54 am 00:54 Mostly Cloudy 40 4.4 9 -12.8 28 28 NW 6 9 29.90 1013 10 16 0.00 0.00
1:54 am 01:54 Mostly Cloudy 37 2.8 10 -12.2 33 33 NW 6 9 29.92 1013 10 16 0.00 0.00
2:54 am 02:54 Mostly Cloudy 35 1.7 10 -12.2 35 35 N 7 11 29.92 1013 10 16 0.00 0.00
3:54 am 03:54 Partly Cloudy 39 3.9 12 -11.1 33 33 N 5 7 29.91 1013 10 16 0.00 0.00
4:54 am 04:54 Mostly Cloudy 35 1.7 14 -10 42 42 NE 8 13 29.93 1014 10 16 0.00 0.00
5:54 am 05:54 Mostly Cloudy 39 3.9 15 -9.4 38 38 N 7 11 29.93 1014 10 16 0.00 0.00
6:54 am 06:54 Mostly Cloudy 39 3.9 15 -9.4 38 38 W 5 7 29.94 1014 10 16 0.00 0.00
7:54 am 07:54 Mostly Cloudy 45 7.2 15 -9.4 30 30 WNW 6 9 29.92 1013 10 16 0.00 0.00
8:54 am 08:54 Mostly Cloudy 54 12.2 14 -10 20 20 SSE 3 6 29.86 1011 10 16 0.00 0.00
9:54 am 09:54 Mostly Cloudy 58 14.4 6 -14.4 12 12 SSE 6 9 29.87 1011 10 16 0.00 0.00
10:54 am 10:54 Mostly Cloudy 62 16.7 1 -17.2 8 8 S 9 15 29.81 1010 10 16 0.00 0.00
11:54 am 11:54 Mostly Cloudy 66 18.9 -4 -20 6 6 SSE 13 20 29.75 1007 10 16 0.00 0.00
12:54 pm 12:54 Partly Cloudy 67 19.4 -3 -19.4 6 6 S 9 15 29.72 1006 10 16 0.00 0.00
1:54 pm 13:54 Partly Cloudy 67 19.4 -4 -20 5 5 E 14 22 29.74 1007 10 16 0.00 0.00
2:43 pm 14:43 Sunny 68 20 -8 -22.2 4 4 NNE 21 33 29.46 998 10 16 0.00 0.00
2:54 pm 14:54 Partly Cloudy 68 20 -8 -22.2 4 4 NNE 15 24 29.72 1007 10 16 0.00 0.00
3:54 pm 15:54 Mostly Cloudy 64 17.8 -8 -22.2 5 5 N 13 20 29.75 1007 10 16 0.00 0.00
4:54 pm 16:54 Mostly Cloudy 60 15.6 -8 -22.2 6 6 NNW 9 15 29.82 1010 10 16 0.00 0.00
5:22 pm 17:22 Mostly Cloudy 61 16.1 -7 -21.7 6 6 NNW 21 33 29.61 1003 10 16 0.00 0.00
5:54 pm 17:54 Partly Cloudy 60 15.6 -7 -21.7 6 6 NW 13 20 29.83 1010 10 16 0.00 0.00
6:54 pm 18:54 Partly Cloudy 53 11.7 -6 -21.1 8 8 E 7 11 29.90 1012 10 16 0.00 0.00
7:54 pm 19:54 Partly Cloudy 48 8.9 -6 -21.1 10 10 NE 10 17 29.90 1013 10 16 0.00 0.00
8:54 pm 20:54 Partly Cloudy 45 7.2 -4 -20 12 12 VRB 5 7 29.89 1012 10 16 0.00 0.00
9:54 pm 21:54 Mostly Cloudy 42 5.6 -3 -19.4 15 15 N 9 15 29.90 1013 10 16 0.00 0.00
10:54 pm 22:54 Mostly Cloudy 44 6.7 -4 -20 13 13 NNW 8 13 29.88 1012 10 16 0.00 0.00
11:54 pm 23:54 Mostly Cloudy 47 8.3 -5 -20.6 11 11 NNW 6 9 29.83 1010 10 16 0.00 0.00

Powered by Vaisala Xweather